Terug naar catalogus

NOAA 16 DEB

ActiefSSO
NORAD 41083·DEBRIS·🇺🇸 United States

Gelanceerd Sep 21, 2000 vanaf Vandenberg Space Force Base

Loading…

Volgende Passages (komende 24 uur)

TLE

VersSource: Space-Track

Epoch: Sep 14, 2026, 03:44 UTC

1 41083U 00055AS  26257.15621224  .00000174  00000-0  19399-3 0  9997
2 41083  98.9869 140.2008 0203737 313.7231  44.7203 13.75397425541460

Volg NOAA 16 DEB in realtime met AllMySat

Download on the App Store